• en France
  • Liste des pays
  • À 7 jours
  • Température de l'eau
  • Carte satellitaire
  • Carte météo
  • Widgets météo
  • user-avatar
    Se connecter

    Météo par heure à Lutkovo

    Ce jour, 18 Septembre, Mardi

    Heure Température Précipitation Vent Pression Humidité
    00:00 +11°C° 0 mm 4 m/s 751 mmHg 93%
    01:00 +11°C° 0 mm 4 m/s 751 mmHg 93%
    02:00 +10°C° 0 mm 3 m/s 751 mmHg 96%
    03:00 +10°C° 0 mm 3 m/s 752 mmHg 95%
    04:00 +10°C° 0 mm 3 m/s 752 mmHg 95%
    05:00 +10°C° 0 mm 3 m/s 752 mmHg 94%
    06:00 +11°C° 0 mm 3 m/s 753 mmHg 93%
    07:00 +11°C° 0 mm 3 m/s 753 mmHg 91%
    08:00 +11°C° 0 mm 3 m/s 754 mmHg 89%
    09:00 +13°C° 0 mm 3 m/s 754 mmHg 82%
    10:00 +14°C° 0 mm 3 m/s 754 mmHg 75%
    11:00 +16°C° 0 mm 3 m/s 754 mmHg 68%
    12:00 +17°C° 0 mm 3 m/s 754 mmHg 65%
    13:00 +17°C° 0 mm 3 m/s 754 mmHg 61%
    14:00 +18°C° 0 mm 3 m/s 754 mmHg 58%
    15:00 +18°C° 0 mm 3 m/s 754 mmHg 62%
    16:00 +17°C° 0 mm 2 m/s 754 mmHg 66%
    17:00 +17°C° 0 mm 2 m/s 754 mmHg 71%
    18:00 +15°C° 0 mm 2 m/s 754 mmHg 76%
    19:00 +14°C° 0 mm 2 m/s 754 mmHg 81%
    20:00 +13°C° 0 mm 2 m/s 754 mmHg 86%
    21:00 +14°C° 0.1 mm 2 m/s 754 mmHg 87%
    22:00 +14°C° 0.1 mm 2 m/s 753 mmHg 89%
    23:00 +14°C° 0.1 mm 2 m/s 753 mmHg 91%

    Demain, 19 Septembre, Mercredi

    Heure Température Précipitation Vent Pression Humidité
    00:00 +13°C° 0 mm 3 m/s 753 mmHg 93%
    01:00 +13°C° 0 mm 3 m/s 753 mmHg 94%
    02:00 +13°C° 0 mm 3 m/s 753 mmHg 96%
    03:00 +13°C° 0 mm 3 m/s 753 mmHg 96%
    04:00 +12°C° 0 mm 3 m/s 753 mmHg 96%
    05:00 +12°C° 0 mm 3 m/s 753 mmHg 96%
    06:00 +13°C° 0 mm 3 m/s 753 mmHg 92%
    07:00 +13°C° 0 mm 3 m/s 753 mmHg 89%
    08:00 +14°C° 0 mm 3 m/s 753 mmHg 86%
    09:00 +17°C° 0 mm 4 m/s 752 mmHg 78%
    10:00 +19°C° 0 mm 4 m/s 752 mmHg 70%
    11:00 +21°C° 0 mm 4 m/s 752 mmHg 62%
    12:00 +22°C° 0 mm 4 m/s 752 mmHg 59%
    13:00 +23°C° 0 mm 4 m/s 752 mmHg 57%
    14:00 +25°C° 0 mm 4 m/s 752 mmHg 54%
    15:00 +23°C° 0 mm 4 m/s 751 mmHg 59%
    16:00 +22°C° 0 mm 3 m/s 751 mmHg 64%
    17:00 +21°C° 0 mm 3 m/s 751 mmHg 69%
    18:00 +20°C° 0 mm 3 m/s 751 mmHg 73%
    19:00 +19°C° 0 mm 3 m/s 751 mmHg 77%
    20:00 +18°C° 0 mm 3 m/s 752 mmHg 82%
    21:00 +17°C° 0 mm 3 m/s 752 mmHg 85%
    22:00 +17°C° 0 mm 3 m/s 752 mmHg 89%
    23:00 +16°C° 0 mm 3 m/s 753 mmHg 92%

    Après-demain, 20 Septembre, Jeudi

    Heure Température Précipitation Vent Pression Humidité
    00:00 +14°C° 0 mm 3 m/s 753 mmHg 94%
    01:00 +13°C° 0 mm 3 m/s 753 mmHg 95%
    02:00 +14°C° 0 mm 2 m/s 753 mmHg 97%
    03:00 +13°C° 0 mm 2 m/s 754 mmHg 97%
    04:00 +13°C° 0 mm 2 m/s 754 mmHg 97%
    05:00 +13°C° 0 mm 2 m/s 754 mmHg 98%
    06:00 +14°C° 0 mm 2 m/s 754 mmHg 95%
    07:00 +15°C° 0 mm 2 m/s 754 mmHg 91%
    08:00 +15°C° 0 mm 2 m/s 755 mmHg 88%
    09:00 +17°C° 0 mm 3 m/s 755 mmHg 80%
    10:00 +19°C° 0 mm 3 m/s 755 mmHg 73%
    11:00 +21°C° 0 mm 3 m/s 755 mmHg 65%
    12:00 +21°C° 0 mm 3 m/s 755 mmHg 62%
    13:00 +22°C° 0 mm 3 m/s 754 mmHg 60%
    14:00 +23°C° 0 mm 4 m/s 754 mmHg 57%
    15:00 +22°C° 0 mm 3 m/s 754 mmHg 62%
    16:00 +21°C° 0 mm 2 m/s 754 mmHg 68%
    17:00 +21°C° 0 mm 2 m/s 754 mmHg 73%
    18:00 +19°C° 0 mm 2 m/s 754 mmHg 78%
    19:00 +18°C° 0 mm 2 m/s 754 mmHg 83%
    20:00 +17°C° 0 mm 2 m/s 754 mmHg 87%
    21:00 +16°C° 0 mm 2 m/s 754 mmHg 88%
    22:00 +16°C° 0 mm 2 m/s 754 mmHg 88%
    23:00 +16°C° 0 mm 2 m/s 754 mmHg 89%

    21 Septembre, Vendredi

    Heure Température Précipitation Vent Pression Humidité
    00:00 +16°C° 0 mm 2 m/s 754 mmHg 89%
    01:00 +16°C° 0 mm 2 m/s 754 mmHg 90%
    02:00 +15°C° 0 mm 2 m/s 754 mmHg 91%
    03:00 +15°C° 0 mm 2 m/s 754 mmHg 92%
    04:00 +15°C° 0 mm 2 m/s 754 mmHg 93%
    05:00 +15°C° 0 mm 2 m/s 754 mmHg 94%
    06:00 +16°C° 0 mm 2 m/s 754 mmHg 91%
    07:00 +17°C° 0 mm 3 m/s 754 mmHg 88%
    08:00 +18°C° 0 mm 3 m/s 754 mmHg 84%
    09:00 +20°C° 0 mm 3 m/s 754 mmHg 78%
    10:00 +22°C° 0 mm 3 m/s 754 mmHg 72%
    11:00 +24°C° 0 mm 3 m/s 754 mmHg 66%
    12:00 +25°C° 0 mm 4 m/s 753 mmHg 63%
    13:00 +26°C° 0 mm 4 m/s 753 mmHg 60%
    14:00 +27°C° 0 mm 4 m/s 753 mmHg 57%
    15:00 +26°C° 0 mm 4 m/s 752 mmHg 62%
    16:00 +25°C° 0 mm 3 m/s 752 mmHg 66%
    17:00 +24°C° 0 mm 3 m/s 752 mmHg 70%
    18:00 +22°C° 0 mm 3 m/s 752 mmHg 73%
    19:00 +21°C° 0 mm 3 m/s 751 mmHg 76%
    20:00 +20°C° 0 mm 3 m/s 751 mmHg 79%
    21:00 +20°C° 0 mm 4 m/s 751 mmHg 79%
    22:00 +19°C° 0 mm 4 m/s 751 mmHg 78%
    23:00 +19°C° 0 mm 4 m/s 751 mmHg 78%

    22 Septembre, Samedi

    Heure Température Précipitation Vent Pression Humidité
    00:00 +18°C° 0 mm 4 m/s 750 mmHg 76%
    01:00 +18°C° 0 mm 4 m/s 750 mmHg 75%
    02:00 +18°C° 0 mm 4 m/s 749 mmHg 74%
    03:00 +17°C° 0 mm 5 m/s 749 mmHg 73%
    04:00 +17°C° 0 mm 5 m/s 748 mmHg 73%
    05:00 +17°C° 0 mm 5 m/s 748 mmHg 72%
    06:00 +17°C° 0 mm 5 m/s 748 mmHg 71%
    07:00 +17°C° 0 mm 5 m/s 747 mmHg 69%
    08:00 +19°C° 0 mm 5 m/s 747 mmHg 68%
    09:00 +20°C° 0 mm 5 m/s 747 mmHg 65%
    10:00 +21°C° 0 mm 6 m/s 747 mmHg 61%
    11:00 +23°C° 0 mm 6 m/s 747 mmHg 57%
    12:00 +22°C° 0.2 mm 5 m/s 747 mmHg 61%
    13:00 +22°C° 0.2 mm 5 m/s 747 mmHg 64%
    14:00 +21°C° 0.2 mm 5 m/s 747 mmHg 67%
    15:00 +19°C° 0.8 mm 4 m/s 748 mmHg 74%
    16:00 +17°C° 0.8 mm 4 m/s 748 mmHg 81%
    17:00 +13°C° 0.8 mm 4 m/s 748 mmHg 89%
    18:00 +12°C° 0.3 mm 3 m/s 749 mmHg 90%
    19:00 +12°C° 0.3 mm 3 m/s 749 mmHg 91%
    20:00 +11°C° 0.3 mm 3 m/s 749 mmHg 92%
    21:00 +12°C° 0.2 mm 2 m/s 750 mmHg 92%
    22:00 +12°C° 0.2 mm 2 m/s 750 mmHg 93%
    23:00 +12°C° 0.2 mm 2 m/s 750 mmHg 93%

    23 Septembre, Dimanche

    Heure Température Précipitation Vent Pression Humidité
    00:00 +10°C° 0.3 mm 2 m/s 750 mmHg 94%
    01:00 +10°C° 0.3 mm 2 m/s 750 mmHg 94%
    02:00 +10°C° 0.3 mm 2 m/s 750 mmHg 94%
    03:00 +10°C° 0.5 mm 2 m/s 751 mmHg 95%
    04:00 +10°C° 0.5 mm 2 m/s 751 mmHg 95%
    05:00 +9°C° 0.5 mm 2 m/s 751 mmHg 96%
    06:00 +10°C° 0.1 mm 2 m/s 751 mmHg 94%
    07:00 +10°C° 0.1 mm 2 m/s 751 mmHg 93%
    08:00 +10°C° 0.1 mm 2 m/s 751 mmHg 92%
    09:00 +12°C° 0 mm 1 m/s 752 mmHg 89%
    10:00 +12°C° 0 mm 1 m/s 752 mmHg 85%
    11:00 +13°C° 0 mm 1 m/s 752 mmHg 81%
    12:00 +14°C° 0 mm 1 m/s 752 mmHg 75%
    13:00 +14°C° 0 mm 1 m/s 752 mmHg 68%
    14:00 +15°C° 0 mm 1 m/s 752 mmHg 62%
    15:00 +15°C° 0 mm 1 m/s 752 mmHg 65%
    16:00 +14°C° 0 mm 1 m/s 752 mmHg 68%
    17:00 +14°C° 0 mm 1 m/s 752 mmHg 71%
    18:00 +12°C° 0 mm 1 m/s 752 mmHg 75%
    19:00 +11°C° 0 mm 1 m/s 752 mmHg 80%
    20:00 +10°C° 0 mm 1 m/s 752 mmHg 85%
    21:00 +9°C° 0 mm 1 m/s 752 mmHg 87%
    22:00 +9°C° 0 mm 1 m/s 753 mmHg 90%
    23:00 +8°C° 0 mm 1 m/s 753 mmHg 92%
    Voir plus